Location: Chippewa Lake
(41.0698°N, 81.9010°W)
Time: 02:11:59
(UTC+00:00)

CARTOSAT-1 - Pass Details

Date: 09 May 2021
Orbit: 617 x 618 km, 97.8° (Epoch: 24 June)

Event Time Altitude Azimuth Distance (km) Brightness Sun altitude
Exits shadow 02:35:24 45° 111° (ESE) 846 3.8 -19.7°
Maximum altitude 02:36:12 52° 73° (ENE) 771 3.8 -19.8°
Drops below altitude 10° 02:40:24 10° 358° (N) 1,990 6.8 -20.3°
Sets 02:42:38 0° 353° (N) 2,900 7.9 -20.6°
